默认 日期 大小 文件数 浏览量 最新下载 xml
passing磁力链接相关资源由用户搜索指令自动获取,结果来源于网络,本站不存储任何资料,亦不承担任何责任,请于24小时内删除,搜索到1028个磁力,用时1ms。
    ... ": 32346, "06 - Cascade.flac": 41782292, "Passing Ships.cue": 1588, "01 - Sideways ... - Noon Tide.flac": 65530554, "02 - Passing Ships.flac": 41610577, "03 - Plantation ... Tomorrow.flac": 29340054, "Andrew Hill - Passing Ships.log": 6634, "Andrew Hill ...
创建时间: 2024-02-17 13:14:19 大小:288.31 MB 文件数量:17 热度:5 最近下载:2025-01-26 20:49:12
    {"Contents.txt": 968, "Half guard passing.jpg": 130603, "Half Guard Passing_1.mp4": 1536391605, "Half Guard Passing_2.mp4": 1408785276, "Half Guard Passing_3.mp4": 1263572354, "Half Guard Passing_4.mp4": 1185316650}
创建时间: 2024-02-18 10:47:23 大小:5.02 GB 文件数量:6 热度:4 最近下载:2025-01-25 08:20:09
    ... Luca Part 02.mp4": 274109557, "Passing The Lasso and Spider Guard ... Dalpra.mp4": 66797570, "00 trailer passing the lasso and spider guard ... Artista Invitational.mp4": 155920173, "15 Passing Over The Leg Same Side ...
创建时间: 2024-02-19 11:13:33 大小:4.07 GB 文件数量:33 热度:5 最近下载:2025-07-29 14:20:03
    ... , "The Complete No Gi Guard Passing Vol 1.mp4": 679967892, "The ... Complete No Gi Guard Passing Vol 2.mp4": 737241805, "The ... Complete No Gi Guard Passing Vol 3.mp4": 790966096, "The ... Complete No Gi Guard Passing Vol 4.mp4": 750638915, "The ...
创建时间: 2024-02-20 13:41:20 大小:2.76 GB 文件数量:7 热度:5 最近下载:2025-03-13 22:02:03
    {"Mixing Loose and Tight Passing.jpg": 109543, "Mixing Loose and Tight Passing 1.mp4": 482201974, "Mixing Loose and Tight Passing 2.mp4": 377212793, "Mixing Loose and Tight Passing 3.mp4": 1998875912}
创建时间: 2024-02-21 13:55:48 大小:2.66 GB 文件数量:4 热度:8 最近下载:2025-01-12 06:16:06
    ... , "7 - CMA Exam techniques for passing first attempt.mp4": 73486529, "8 ...
创建时间: 2024-02-23 12:43:12 大小:618.27 MB 文件数量:22 热度:9 最近下载:2025-08-01 06:12:05
    ... JasonHunt_Cover.jpg": 856171, "Passing The Butterfly Guard by Jason ... Hunt 1.mp4": 619368854, "Passing The Butterfly Guard by Jason ... Hunt 2.mp4": 801437793, "Passing The Butterfly Guard by Jason ... Hunt 3.mp4": 416699176, "Passing The Butterfly Guard by Jason ...
创建时间: 2024-02-27 16:40:41 大小:2.17 GB 文件数量:5 热度:5 最近下载:2025-01-17 22:22:10
    ... of 5.mp4": 192702068, "The Passing Bells. Episode 2 of 5 ... .mp4": 189958208, "The Passing Bells. Episode 3 of 5 ... .mp4": 190560748, "The Passing Bells. Episode 4 of 5 ... .mp4": 189435944, "The Passing Bells. Episode 5 of 5 ...
创建时间: 2024-03-05 08:55:06 大小:904.41 MB 文件数量:6 热度:4 最近下载:2025-02-22 08:18:03
    {"01.jpg": 709002, "02.jpg": 648276, "03.jpg": 616286, "04.jpg": 689467, "05.jpg": 716503, "06.jpg": 688717, "07.jpg": 529549, "08.jpg": 619218, "09.jpg": 511351, "10.jpg": 543142, "11.jpg": 644437, "12.jpg": 583302, "13.jpg": 635077, "14.jpg": 600348, "15 ...
创建时间: 2024-03-07 14:39:50 大小:13.91 MB 文件数量:24 热度:7 最近下载:2025-09-19 00:27:07
    ... , "The Complete No Gi Guard Passing Vol 1.mp4": 679967892, "The ... Complete No Gi Guard Passing Vol 2.mp4": 737241805, "The ... Complete No Gi Guard Passing Vol 3.mp4": 790966096, "The ... , "The Complete No-Gi Guard Passing System.jpg": 127874}, "Get Bonus ...
创建时间: 2024-03-09 12:53:02 大小:2.76 GB 文件数量:9 热度:5 最近下载:2025-02-20 14:50:02
    ... , "Mixing Loose and Tight Passing.jpg": 109543, "Mixing Loose ... and Tight Passing 1.mp4": 482201974, "Mixing ... Loose and Tight Passing 2.mp4": 377212793, "Mixing ... Loose and Tight Passing 3.mp4": 1998875912}, "Get ...
创建时间: 2024-03-13 08:06:07 大小:2.66 GB 文件数量:6 热度:6 最近下载:2025-02-04 03:29:02
    {"Passing.By.A.Tailwind.Journey.rar": 513718140}
创建时间: 2024-03-13 15:52:57 大小:489.92 MB 文件数量:1 热度:7 最近下载:2025-09-19 00:27:06
    {"Setup.exe": 316478174, "README.txt": 338, "unleashed.nfo": 6887, "IGG-GAMES.COM.url": 196, "_INSTALL TUTORIAL.txt": 1726, "PCGAMESTORRENTS.COM.url": 202, "Free Premium Accounts at OfficialMrB.com.txt": 768}
创建时间: 2024-03-13 17:49:21 大小:301.83 MB 文件数量:7 热度:9 最近下载:2025-09-20 12:35:07
    {"Passing By a Tailwind Journey [010013F01E6D2000][v0] (0.73 GB).nsz": 606280946, "Passing By a Tailwind Journey [010013F01E6D2800][v65536] (0.32 GB).nsz": 220249176}
创建时间: 2024-03-14 09:25:11 大小:788.24 MB 文件数量:2 热度:6 最近下载:2025-09-19 00:27:03
    {"Cover.jpg": 312811, "01 - Passing.flac": 30314822, "03 - The Ascent. ... - No Remembrance.flac": 31062742, "05 - Passing (Instrumental).flac": 29620998, "07 - The ...
创建时间: 2024-03-19 13:16:59 大小:224.63 MB 文件数量:10 热度:4 最近下载:2025-01-13 08:48:06
创建时间: 2024-03-28 08:27:03 大小:9.34 GB 文件数量:1 热度:5 最近下载:2025-02-10 18:50:03
    ... 81609, "Over-Under Pressure Passing System Vol 1.m4v": ... 399429141, "Over-Under Pressure Passing System Vol 2.m4v": 397668193 ... , "Over-Under Pressure Passing System Vol 3.m4v": ... 265420591, "Over-Under Pressure Passing System Vol 4.m4v": 192170636 ...
创建时间: 2024-03-29 08:42:33 大小:1.17 GB 文件数量:5 热度:8 最近下载:2025-08-11 09:04:02
    {"files": {"blake3.txt": 0, "block-lvl.txt": 10, "dwarfs-tree.txt": 0, "game-root.dwarfs": 549976038}, "actions.sh": 12347, "start.n-w.sh": 987, "script_default_settings": 3553}
创建时间: 2024-03-31 18:16:14 大小:524.51 MB 文件数量:7 热度:6 最近下载:2025-09-15 13:50:25
    {"[Campus] ハルウソ -Passing Memories- 春天的谎言 -Passing Memories- 汉化硬盘版[天之圣杯汉化组汉化组].rar": 1321720474}
创建时间: 2024-04-18 16:26:39 大小:1.23 GB 文件数量:1 热度:9 最近下载:2025-09-21 04:19:02
    {"PassingtoSideandBackControlWilliamTackettVol1.mp4": 560671094, "PassingtoSideandBackControlWilliamTackettVol2.mp4": 277210629, "PassingtoSideandBackControlWilliamTackettVol3.mp4": 211335288}
创建时间: 2024-04-22 09:16:28 大小:1000.61 MB 文件数量:3 热度:6 最近下载:2025-09-15 13:50:02